Location: Monfort
(47.1967°N, 0.2115°W)
Time: 12:10:24
(UTC+00:00)

IRS-1A Rocket - Pass Details

Date: 24 October 2020
Orbit: 851 x 931 km, 99.2° (Epoch: 27 November)

Event Time Altitude Azimuth Distance (km) Brightness Sun altitude
Exits shadow 19:53:01 64° 335° (NNW) 960 4.5 -30.4°
Drops below altitude 10° 19:57:41 10° 344° (NNW) 2,507 7.0 -31.2°
Sets 20:00:03 0° 345° (NNW) 3,441 7.8 -31.6°
